Home > Weather > Tangier > Past weeks

Flag for Morocco Past Weather in Tangier, Morocco — Yesterday and Last 2 Weeks

Now
57 °F

Passing clouds.


Feels Like: 57 °F
Forecast: 65 / 81 °F
Wind: 2 mph from East

Location: Tanger Aerodrome

Current Time: May 31, 2016 at 4:57:54 AM

Latest Report: May 31, 2016 at 4:00 AM


Visibility: N/A

Pressure: 30.04 "Hg

Humidity: 88%

Dew Point: 54 °F

Location of TangierLocation

Past Weather in Tangier — Graph

°F

Tangier Temperature Yesterday

Maximum temperature yesterday: 73 °F (at 2:00 PM)
Minimum temperature yesterday: 55 °F (at 3:00 AM)
Average temperature yesterday: 65 °F

High & Low Weather Summary for the Past Weeks

 TemperatureHumidityPressure
High82 °F (May 20, 3:00 PM)94% (May 16, 4:30 AM)30.21 "Hg (May 16, 4:30 AM)
Low50 °F (May 20, 3:30 AM)30% (May 17, 12:00 PM)29.86 "Hg (May 17, 4:00 PM)
Average67 °F70%30.03 "Hg
* Reported May 16 3:00 AM — May 31 3:30 AM, Tangier, Weather by CustomWeather, © 2016

Note: Actual official high and low records may vary slightly from our data, if they occured in-between our weather recording intervals... More about our weather records

Advertising

Tangier Weather History for the Previous 24 Hours

Scroll right to see more
 ConditionsComfort  
Time TempWeatherWind HumidityBarometerVisibility
3:30 AM
Tue, May 31
57 °FPassing clouds.1 mph88%30.04 "HgN/A
3:00 AM57 °FPassing clouds.2 mph88%30.04 "HgN/A
2:30 AM57 °FPassing clouds.3 mph88%30.04 "HgN/A
2:00 AM57 °FPassing clouds.6 mph88%30.04 "HgN/A
1:30 AM57 °FPassing clouds.3 mph88%30.04 "HgN/A
1:00 AM59 °FPassing clouds.3 mph88%30.04 "HgN/A
12:30 AM59 °FPassing clouds.3 mph88%30.07 "HgN/A
12:00 AM59 °FPassing clouds.3 mph82%30.07 "HgN/A
11:30 PM
Mon, May 30
61 °FPassing clouds.3 mph83%30.07 "HgN/A
11:00 PM63 °FPassing clouds.No wind77%30.07 "HgN/A
10:30 PM64 °FPassing clouds.3 mph78%30.07 "HgN/A
10:00 PM64 °FPassing clouds.6 mph78%30.07 "HgN/A
9:30 PM64 °FPassing clouds.3 mph73%30.07 "HgN/A
9:00 PM66 °FPassing clouds.9 mph73%30.04 "HgN/A
8:30 PM66 °FPassing clouds.9 mph73%30.04 "HgN/A
8:00 PM68 °FPassing clouds.12 mph69%30.04 "HgN/A
7:30 PM70 °FPassing clouds.14 mph60%30.04 "HgN/A
7:00 PM70 °FPassing clouds.15 mph53%30.04 "HgN/A
6:30 PM72 °FPassing clouds.13 mph50%30.04 "HgN/A
6:00 PM72 °FPassing clouds.14 mph57%30.04 "HgN/A
5:30 PM72 °FPassing clouds.15 mph53%30.04 "HgN/A
5:00 PM72 °FPassing clouds.15 mph53%30.04 "HgN/A
4:30 PM72 °FPassing clouds.14 mph57%30.04 "HgN/A
4:00 PM73 °FPassing clouds.14 mph57%30.04 "HgN/A
3:30 PM72 °FScattered clouds.13 mph61%30.07 "HgN/A
3:00 PM72 °FScattered clouds.14 mph65%30.07 "HgN/A
2:30 PM73 °FScattered clouds.14 mph57%30.07 "HgN/A
2:00 PM73 °FScattered clouds.13 mph53%30.07 "HgN/A
1:30 PM72 °FScattered clouds.12 mph57%30.07 "HgN/A
1:00 PM72 °FScattered clouds.10 mph57%30.09 "HgN/A
12:00 PM70 °FScattered clouds.9 mph60%30.09 "Hg5 mi
11:30 AM70 °FScattered clouds.9 mph60%30.09 "Hg5 mi
11:00 AM70 °FScattered clouds.9 mph57%30.09 "Hg5 mi
10:30 AM68 °FScattered clouds.8 mph60%30.09 "Hg5 mi
10:00 AM68 °FBroken clouds.7 mph60%30.09 "Hg5 mi
9:30 AM68 °FBroken clouds.6 mph64%30.09 "Hg5 mi
9:00 AM66 °FBroken clouds.7 mph68%30.09 "Hg5 mi
8:30 AM63 °FBroken clouds.3 mph77%30.09 "Hg5 mi
8:00 AM61 °FBroken clouds.No wind83%30.09 "Hg5 mi
7:30 AM59 °FScattered clouds.No wind88%30.09 "HgN/A
7:00 AM55 °FScattered clouds.2 mph88%30.09 "HgN/A
6:30 AM55 °FScattered clouds.3 mph82%30.09 "HgN/A
6:00 AM55 °FPassing clouds.3 mph82%30.09 "HgN/A
5:30 AM57 °FPassing clouds.5 mph82%30.09 "HgN/A
5:00 AM55 °FPassing clouds.3 mph88%30.09 "HgN/A
4:30 AM55 °FPassing clouds.5 mph88%30.09 "HgN/A
4:00 AM57 °FPassing clouds.5 mph82%30.09 "HgN/A
Weather by CustomWeather, © 2016

See weather overviewHow to use our weather pages